Regional Weather Roundup
Issued by NWS Charleston, WV

Home | Current Version | Previous Version | Text Only | Print | Product List | Glossary On
Versions: 1 2 3 4 5 6 7 8 9 10 11 12 13 14 15 16 17 18 19 20 21 22 23 24 25 26 27 28
000
ASUS41 KRLX 031210
RWRRLX
Regional Weather Roundup
National Weather Service Charleston WV
800 AM EDT TUE AUG 03 2021

Note: "fair" indicates few or no clouds below 12,000 feet with no
significant weather and/or obstructions to visibility.

WVZ003-031300-
Northern Panhandle of West Virginia

CITY           SKY/WX    TMP DP  RH WIND       PRES   REMARKS
WHEELING       SUNNY     59  53  80 E6        30.12S
$$

WVZ009-031300-
Northwest West Virginia

CITY           SKY/WX    TMP DP  RH WIND       PRES   REMARKS
PARKERSBURG    SUNNY     56  54  93 CALM      30.10S
$$

WVZ006-031300-
Western West Virginia

CITY           SKY/WX    TMP DP  RH WIND       PRES   REMARKS
HUNTINGTON     MOSUNNY   62  58  86 N5        30.07R
$$

WVZ015-031300-
West Central West Virginia

CITY           SKY/WX    TMP DP  RH WIND       PRES   REMARKS
CHARLESTON     PTSUNNY   62  45  53 NE3       30.06F
$$

WVZ509-031-039-031300-
North Central West Virginia

CITY           SKY/WX    TMP DP  RH WIND       PRES   REMARKS
MORGANTOWN     MOSUNNY   62  56  80 NW3       30.12S
CLARKSBURG     PTSUNNY   60  56  86 CALM      30.10S
BUCKHANNON     MOSUNNY   57  57 100 CALM      30.11S
$$

WVZ515-516-025-034-042-507-031300-
Southern West Virginia

CITY           SKY/WX    TMP DP  RH WIND       PRES   REMARKS
BECKLEY        CLOUDY    63  57  81 SE7       30.12S
LOGAN          CLOUDY    66  59  77 CALM      30.07S
PINEVILLE      LGT RAIN  63  60  90 MISG      30.12S
BLUEFIELD      CLOUDY    62  57  83 VRB5      30.13F
LEWISBURG      CLOUDY    60  56  86 CALM      30.14S
$$

WVZ525-526-031300-
Northern Mountains of West Virginia

CITY           SKY/WX    TMP DP  RH WIND       PRES   REMARKS
ELKINS         PTSUNNY   55  51  86 CALM      30.14S
$$

WVZ502-504-052-031300-
Eastern Panhandle of West Virginia

CITY           SKY/WX    TMP DP  RH WIND       PRES   REMARKS
PETERSBURG     CLOUDY    63  61  94 CALM      30.14S
CUMBERLAND     CLOUDY    58  53  83 CALM      30.18S
MARTINSBURG    CLOUDY    61  56  83 CALM      30.12R
$$

OHZ075-083-KYZ101-031300-
Southeast Ohio/Northeast Kentucky

CITY           SKY/WX    TMP DP  RH WIND       PRES   REMARKS
ATHENS         SUNNY     58  56  93 CALM      30.09S
JACKSON        FAIR      55  54  94 CALM      30.10S
ASHLAND        MOSUNNY   61  60  97 CALM      30.08R
$$



USA.gov is the U.S. government's official web portal to all federal, state and local government web resources and services.